Time,TemperatureF,DewpointF,PressureIn,WindDirection,WindDirectionDegrees,WindSpeedMPH,WindSpeedGustMPH,Humidity,HourlyPrecipIn,Conditions,Clouds,dailyrainin,SoftwareType,DateUTC
2013-03-14 00:03:00,40.6,17.6,29.56,South,180,1.5,2.5,39,0.00,,,0.00,WSDL version 426,2013-03-14 05:03:00,
2013-03-14 00:08:00,40.3,17.3,29.56,SSE,160,1.2,2.5,39,-99.99,,,-99.99,WSDL version 426,2013-03-14 05:08:00,
2013-03-14 00:14:00,40.0,17.6,29.56,SSW,203,1.4,2.7,40,-99.99,,,-99.99,WSDL version 426,2013-03-14 05:14:00,
2013-03-14 00:20:00,40.0,17.7,29.56,South,174,2.6,4.0,40,-99.99,,,-99.99,WSDL version 426,2013-03-14 05:20:00,
2013-03-14 00:26:00,40.7,18.2,29.56,SSE,163,2.2,4.0,39,-99.99,,,-99.99,WSDL version 426,2013-03-14 05:26:00,
2013-03-14 00:31:00,41.0,18.0,29.56,SSE,158,1.4,3.8,40,-99.99,,,-99.99,WSDL version 426,2013-03-14 05:31:00,
2013-03-14 00:36:00,40.8,18.3,29.56,South,175,1.4,3.4,40,-99.99,,,-99.99,WSDL version 426,2013-03-14 05:36:00,
2013-03-14 00:42:00,40.9,18.1,29.56,SSE,152,2.7,3.8,39,-99.99,,,-99.99,WSDL version 426,2013-03-14 05:42:00,
2013-03-14 00:48:00,41.2,18.1,29.56,SSE,158,1.6,3.8,39,-99.99,,,-99.99,WSDL version 426,2013-03-14 05:48:00,
2013-03-14 00:53:00,40.9,18.1,29.56,SSE,165,2.7,3.8,40,-99.99,,,-99.99,WSDL version 426,2013-03-14 05:53:00,
2013-03-14 00:58:00,40.9,18.2,29.56,ESE,113,2.4,3.8,39,-99.99,,,-99.99,WSDL version 426,2013-03-14 05:58:00,
2013-03-14 01:03:00,41.0,17.9,29.56,SSE,155,1.6,3.6,39,-99.99,,,-99.99,WSDL version 426,2013-03-14 06:03:00,
2013-03-14 01:08:00,40.8,18.4,29.56,SSE,165,2.4,3.8,40,-99.99,,,-99.99,WSDL version 426,2013-03-14 06:08:00,
2013-03-14 01:13:00,40.8,18.3,29.53,South,180,2.2,4.0,40,-99.99,,,-99.99,WSDL version 426,2013-03-14 06:13:00,
2013-03-14 01:18:00,40.6,18.1,29.53,ESE,113,1.9,4.0,40,-99.99,,,-99.99,WSDL version 426,2013-03-14 06:18:00,
2013-03-14 01:23:00,40.5,18.0,29.53,SE,133,1.9,3.4,40,-99.99,,,-99.99,WSDL version 426,2013-03-14 06:23:00,
2013-03-14 01:28:00,40.4,18.0,29.53,SE,138,1.8,3.4,40,-99.99,,,-99.99,WSDL version 426,2013-03-14 06:28:00,
2013-03-14 01:33:00,40.1,17.7,29.53,SSE,150,1.7,2.7,40,-99.99,,,-99.99,WSDL version 426,2013-03-14 06:33:00,
2013-03-14 01:38:00,40.0,17.6,29.53,SE,138,2.2,3.8,40,-99.99,,,-99.99,WSDL version 426,2013-03-14 06:38:00,
2013-03-14 01:43:00,39.9,17.6,29.53,SE,135,1.5,3.8,40,-99.99,,,-99.99,WSDL version 426,2013-03-14 06:43:00,
2013-03-14 01:48:00,39.8,17.5,29.53,SSE,158,1.3,2.7,41,-99.99,,,-99.99,WSDL version 426,2013-03-14 06:48:00,
2013-03-14 01:53:00,39.7,17.9,29.53,SE,145,1.2,2.9,41,-99.99,,,-99.99,WSDL version 426,2013-03-14 06:53:00,
2013-03-14 01:58:00,39.5,17.7,29.53,ESE,113,1.2,2.9,41,-99.99,,,-99.99,WSDL version 426,2013-03-14 06:58:00,
2013-03-14 02:03:00,39.3,17.5,29.53,SE,127,1.8,3.4,41,-99.99,,,-99.99,WSDL version 426,2013-03-14 07:03:00,
2013-03-14 02:08:00,39.1,18.0,29.53,ESE,118,2.0,3.4,43,0.00,,,0.00,WSDL version 426,2013-03-14 07:08:00,
2013-03-14 02:13:00,38.9,18.3,29.53,ESE,113,2.1,2.9,43,0.00,,,0.00,WSDL version 426,2013-03-14 07:13:00,
2013-03-14 02:18:00,38.8,18.3,29.53,SE,128,1.9,3.6,43,-99.99,,,-99.99,WSDL version 426,2013-03-14 07:18:00,
2013-03-14 02:23:00,38.8,18.6,29.53,East,93,1.8,3.6,44,0.00,,,0.00,WSDL version 426,2013-03-14 07:23:00,
2013-03-14 02:28:00,38.7,18.7,29.53,SE,145,2.4,3.4,44,0.00,,,0.00,WSDL version 426,2013-03-14 07:28:00,
2013-03-14 02:33:00,38.8,18.8,29.53,SSE,152,2.4,3.8,44,0.00,,,0.00,WSDL version 426,2013-03-14 07:33:00,
2013-03-14 02:38:00,39.1,19.0,29.53,SSE,158,1.5,4.0,44,0.00,,,0.00,WSDL version 426,2013-03-14 07:38:00,
2013-03-14 02:43:00,39.3,19.2,29.53,SSE,163,2.4,4.0,44,0.00,,,0.00,WSDL version 426,2013-03-14 07:43:00,
2013-03-14 02:48:00,39.5,19.3,29.53,SE,135,1.6,3.8,43,-99.99,,,-99.99,WSDL version 426,2013-03-14 07:48:00,
2013-03-14 02:53:00,39.6,18.9,29.53,SE,138,2.4,4.3,43,-99.99,,,-99.99,WSDL version 426,2013-03-14 07:53:00,
2013-03-14 02:58:00,39.5,18.9,29.53,SE,135,1.1,4.3,43,-99.99,,,-99.99,WSDL version 426,2013-03-14 07:58:00,
2013-03-14 03:03:00,39.4,19.0,29.53,ESE,123,0.8,3.1,43,-99.99,,,-99.99,WSDL version 426,2013-03-14 08:03:00,
2013-03-14 03:08:00,39.1,18.7,29.53,ESE,113,1.4,3.1,44,-99.99,,,-99.99,WSDL version 426,2013-03-14 08:08:00,
2013-03-14 03:13:00,39.0,19.0,29.53,SSE,158,1.3,3.1,44,-99.99,,,-99.99,WSDL version 426,2013-03-14 08:13:00,
2013-03-14 03:18:00,38.9,18.8,29.53,ESE,113,1.6,2.7,44,-99.99,,,-99.99,WSDL version 426,2013-03-14 08:18:00,
2013-03-14 03:23:00,38.8,19.0,29.53,ESE,113,0.6,2.7,44,-99.99,,,-99.99,WSDL version 426,2013-03-14 08:23:00,
2013-03-14 03:28:00,38.7,18.7,29.53,South,175,1.1,3.1,44,-99.99,,,-99.99,WSDL version 426,2013-03-14 08:28:00,
2013-03-14 03:33:00,39.0,18.9,29.53,SSW,200,0.5,3.1,44,0.00,,,0.00,WSDL version 426,2013-03-14 08:33:00,
2013-03-14 03:38:00,39.1,18.7,29.53,SSE,168,2.0,3.4,43,0.00,,,0.00,WSDL version 426,2013-03-14 08:38:00,
2013-03-14 03:43:00,39.3,18.7,29.53,South,188,1.7,3.4,43,-99.99,,,-99.99,WSDL version 426,2013-03-14 08:43:00,
2013-03-14 03:48:00,39.7,19.0,29.53,SSE,152,2.7,4.0,43,0.00,,,0.00,WSDL version 426,2013-03-14 08:48:00,
2013-03-14 03:53:00,39.7,19.1,29.53,SSE,153,2.7,4.0,43,0.00,,,0.00,WSDL version 426,2013-03-14 08:53:00,
2013-03-14 03:58:00,39.9,19.2,29.50,SSE,163,2.7,4.0,43,0.00,,,0.00,WSDL version 426,2013-03-14 08:58:00,
2013-03-14 04:03:00,40.0,19.3,29.50,South,178,2.9,4.3,43,0.00,,,0.00,WSDL version 426,2013-03-14 09:03:00,
2013-03-14 04:08:00,40.1,19.4,29.50,SSE,155,2.9,4.3,43,0.00,,,0.00,WSDL version 426,2013-03-14 09:08:00,
2013-03-14 04:13:00,40.3,19.6,29.50,SSE,160,3.4,4.7,43,-99.99,,,-99.99,WSDL version 426,2013-03-14 09:13:00,
2013-03-14 04:18:00,40.3,19.6,29.50,SSE,160,2.7,4.7,43,-99.99,,,-99.99,WSDL version 426,2013-03-14 09:18:00,
2013-03-14 04:23:00,40.3,19.4,29.50,South,186,2.7,4.3,42,-99.99,,,-99.99,WSDL version 426,2013-03-14 09:23:00,
2013-03-14 04:28:00,40.3,19.0,29.50,SSW,195,1.9,4.3,42,-99.99,,,-99.99,WSDL version 426,2013-03-14 09:28:00,
2013-03-14 04:33:00,40.2,19.0,29.50,SSE,163,2.0,3.6,42,-99.99,,,-99.99,WSDL version 426,2013-03-14 09:33:00,
2013-03-14 04:38:00,40.0,18.7,29.50,SSW,203,1.7,3.6,42,-99.99,,,-99.99,WSDL version 426,2013-03-14 09:38:00,
2013-03-14 04:43:00,39.8,18.6,29.50,South,169,0.3,3.6,42,-99.99,,,-99.99,WSDL version 426,2013-03-14 09:43:00,
2013-03-14 04:48:00,39.5,18.3,29.50,SSE,158,0.4,2.7,42,-99.99,,,-99.99,WSDL version 426,2013-03-14 09:48:00,
2013-03-14 04:53:00,39.2,18.1,29.50,SSE,158,0.4,1.6,42,-99.99,,,-99.99,WSDL version 426,2013-03-14 09:53:00,
2013-03-14 04:58:00,39.0,18.3,29.50,South,169,0.3,2.5,43,-99.99,,,-99.99,WSDL version 426,2013-03-14 09:58:00,
2013-03-14 05:03:00,39.0,18.4,29.50,SSW,195,1.4,3.1,43,0.00,,,0.00,WSDL version 426,2013-03-14 10:03:00,
2013-03-14 05:08:00,39.2,18.0,29.50,SE,146,1.2,3.1,42,-99.99,,,-99.99,WSDL version 426,2013-03-14 10:08:00,
2013-03-14 05:13:00,39.2,18.0,29.50,SSW,203,1.8,3.1,42,-99.99,,,-99.99,WSDL version 426,2013-03-14 10:13:00,
2013-03-14 05:18:00,39.4,18.7,29.50,South,188,2.1,3.1,43,-99.99,,,-99.99,WSDL version 426,2013-03-14 10:18:00,
2013-03-14 05:23:00,39.4,18.8,29.50,SSW,203,1.7,3.4,43,-99.99,,,-99.99,WSDL version 426,2013-03-14 10:23:00,
2013-03-14 05:28:00,39.4,18.8,29.50,SSW,203,1.7,3.4,43,-99.99,,,-99.99,WSDL version 426,2013-03-14 10:28:00,
2013-03-14 05:33:00,39.4,18.8,29.50,SSE,158,1.5,3.1,43,-99.99,,,-99.99,WSDL version 426,2013-03-14 10:33:00,
2013-03-14 05:38:00,39.3,18.6,29.50,SSE,150,1.4,3.1,43,-99.99,,,-99.99,WSDL version 426,2013-03-14 10:38:00,
2013-03-14 05:43:00,39.2,18.6,29.50,ESE,113,2.2,3.1,43,-99.99,,,-99.99,WSDL version 426,2013-03-14 10:43:00,
2013-03-14 05:48:00,39.2,18.6,29.50,SSE,158,2.5,3.8,43,-99.99,,,-99.99,WSDL version 426,2013-03-14 10:48:00,
2013-03-14 05:53:00,39.3,19.1,29.50,SSE,155,2.4,3.8,44,-99.99,,,-99.99,WSDL version 426,2013-03-14 10:53:00,
2013-03-14 05:58:00,39.4,19.3,29.50,SSE,160,2.7,3.8,44,-99.99,,,-99.99,WSDL version 426,2013-03-14 10:58:00,
2013-03-14 06:03:00,39.4,19.3,29.50,SSE,155,2.5,4.3,44,-99.99,,,-99.99,WSDL version 426,2013-03-14 11:03:00,
2013-03-14 06:08:00,39.4,19.4,29.50,SSE,168,1.8,4.3,45,-99.99,,,-99.99,WSDL version 426,2013-03-14 11:08:00,
2013-03-14 06:13:00,39.4,19.3,29.53,SSE,163,2.4,3.6,44,-99.99,,,-99.99,WSDL version 426,2013-03-14 11:13:00,
2013-03-14 06:18:00,39.4,19.5,29.53,SE,141,2.4,3.8,45,-99.99,,,-99.99,WSDL version 426,2013-03-14 11:18:00,
2013-03-14 06:23:00,39.4,19.8,29.53,SE,140,2.3,4.0,45,-99.99,,,-99.99,WSDL version 426,2013-03-14 11:23:00,
2013-03-14 06:28:00,39.3,19.7,29.53,ESE,108,2.7,4.0,45,-99.99,,,-99.99,WSDL version 426,2013-03-14 11:28:00,
2013-03-14 06:33:00,39.0,19.9,29.53,ESE,105,2.6,4.0,46,-99.99,,,-99.99,WSDL version 426,2013-03-14 11:33:00,
2013-03-14 06:38:00,38.8,20.2,29.53,ESE,120,2.6,3.6,47,-99.99,,,-99.99,WSDL version 426,2013-03-14 11:38:00,
2013-03-14 06:43:00,38.7,20.2,29.53,ESE,113,1.8,3.8,47,-99.99,,,-99.99,WSDL version 426,2013-03-14 11:43:00,
2013-03-14 06:48:00,38.6,20.1,29.53,SSE,153,1.7,3.8,47,-99.99,,,-99.99,WSDL version 426,2013-03-14 11:48:00,
2013-03-14 06:53:00,38.5,20.0,29.53,SE,141,3.3,3.8,47,-99.99,,,-99.99,WSDL version 426,2013-03-14 11:53:00,
2013-03-14 06:58:00,38.7,20.2,29.50,ESE,115,2.0,3.8,47,-99.99,,,-99.99,WSDL version 426,2013-03-14 11:58:00,
2013-03-14 07:03:00,38.7,20.2,29.50,ESE,115,1.7,3.8,47,-99.99,,,-99.99,WSDL version 426,2013-03-14 12:03:00,
2013-03-14 07:08:00,38.6,20.1,29.50,ENE,68,2.2,3.1,47,0.00,,,0.00,WSDL version 426,2013-03-14 12:08:00,
2013-03-14 07:13:00,38.4,20.5,29.53,NE,45,2.6,3.1,49,-99.99,,,-99.99,WSDL version 426,2013-03-14 12:13:00,
2013-03-14 07:18:00,38.2,20.7,29.53,NNE,23,2.7,3.4,49,0.00,,,0.00,WSDL version 426,2013-03-14 12:18:00,
2013-03-14 07:23:00,38.0,20.5,29.53,NE,45,2.4,3.4,49,-99.99,,,-99.99,WSDL version 426,2013-03-14 12:23:00,
2013-03-14 07:28:00,37.9,20.5,29.53,NE,45,2.3,3.1,49,0.00,,,0.00,WSDL version 426,2013-03-14 12:28:00,
2013-03-14 07:33:00,37.9,20.5,29.53,ENE,68,2.9,3.4,49,0.00,,,0.00,WSDL version 426,2013-03-14 12:33:00,
2013-03-14 07:38:00,37.9,20.9,29.53,ENE,76,3.2,3.8,50,0.00,,,0.00,WSDL version 426,2013-03-14 12:38:00,
2013-03-14 07:43:00,38.1,21.1,29.53,East,88,2.9,3.8,50,0.00,,,0.00,WSDL version 426,2013-03-14 12:43:00,
2013-03-14 07:48:00,38.4,21.4,29.53,ESE,103,2.8,3.8,51,0.00,,,0.00,WSDL version 426,2013-03-14 12:48:00,
2013-03-14 07:53:00,38.7,21.9,29.53,ESE,121,2.8,4.3,50,-99.99,,,-99.99,WSDL version 426,2013-03-14 12:53:00,
2013-03-14 07:58:00,39.0,21.9,29.53,ESE,118,3.0,4.3,50,-99.99,,,-99.99,WSDL version 426,2013-03-14 12:58:00,
2013-03-14 08:03:00,39.3,21.9,29.53,SE,124,3.5,4.3,50,-99.99,,,-99.99,WSDL version 426,2013-03-14 13:03:00,
2013-03-14 08:08:00,39.5,22.2,29.53,SE,145,2.3,4.3,49,-99.99,,,-99.99,WSDL version 426,2013-03-14 13:08:00,
2013-03-14 08:13:00,39.8,22.2,29.56,ESE,115,1.5,4.0,49,-99.99,,,-99.99,WSDL version 426,2013-03-14 13:13:00,
2013-03-14 08:18:00,40.1,22.5,29.56,SE,130,1.6,4.0,49,-99.99,,,-99.99,WSDL version 426,2013-03-14 13:18:00,
2013-03-14 08:23:00,40.5,22.8,29.56,South,173,2.0,4.0,49,-99.99,,,-99.99,WSDL version 426,2013-03-14 13:23:00,
2013-03-14 08:28:00,41.0,23.0,29.53,South,188,1.6,4.0,48,-99.99,,,-99.99,WSDL version 426,2013-03-14 13:28:00,
2013-03-14 08:33:00,41.6,23.4,29.53,South,175,2.7,5.6,48,-99.99,,,-99.99,WSDL version 426,2013-03-14 13:33:00,
2013-03-14 08:38:00,42.2,23.4,29.53,SSE,166,4.1,6.3,47,-99.99,,,-99.99,WSDL version 426,2013-03-14 13:38:00,
2013-03-14 08:43:00,42.9,23.6,29.53,SSW,193,3.1,6.3,46,-99.99,,,-99.99,WSDL version 426,2013-03-14 13:43:00,
2013-03-14 08:48:00,43.5,23.6,29.53,South,177,3.5,6.5,45,-99.99,,,-99.99,WSDL version 426,2013-03-14 13:48:00,
2013-03-14 08:53:00,43.9,23.9,29.53,South,178,3.8,6.5,45,-99.99,,,-99.99,WSDL version 426,2013-03-14 13:53:00,
2013-03-14 08:58:00,44.5,24.5,29.53,South,180,3.5,6.7,45,-99.99,,,-99.99,WSDL version 426,2013-03-14 13:58:00,
2013-03-14 09:03:00,45.1,24.9,29.53,South,191,3.4,6.7,45,-99.99,,,-99.99,WSDL version 426,2013-03-14 14:03:00,
2013-03-14 09:08:00,45.8,25.2,29.53,South,180,3.2,5.8,44,-99.99,,,-99.99,WSDL version 426,2013-03-14 14:08:00,
2013-03-14 09:13:00,46.4,25.6,29.53,SSW,194,4.1,6.3,44,-99.99,,,-99.99,WSDL version 426,2013-03-14 14:13:00,
2013-03-14 09:18:00,47.1,25.8,29.53,South,175,3.6,6.3,43,-99.99,,,-99.99,WSDL version 426,2013-03-14 14:18:00,
2013-03-14 09:23:00,47.6,26.0,29.53,South,177,4.7,6.0,42,-99.99,,,-99.99,WSDL version 426,2013-03-14 14:23:00,
2013-03-14 09:28:00,48.1,25.7,29.53,South,169,5.0,7.8,41,-99.99,,,-99.99,WSDL version 426,2013-03-14 14:28:00,
2013-03-14 09:33:00,48.9,26.2,29.53,SSW,193,5.1,7.8,41,-99.99,,,-99.99,WSDL version 426,2013-03-14 14:33:00,
2013-03-14 09:38:00,49.8,26.8,29.53,SSE,152,5.6,8.5,40,-99.99,,,-99.99,WSDL version 426,2013-03-14 14:38:00,
2013-03-14 09:43:00,50.5,27.0,29.50,South,170,5.5,8.7,39,-99.99,,,-99.99,WSDL version 426,2013-03-14 14:43:00,
2013-03-14 09:48:00,51.4,26.9,29.50,SSE,163,7.3,12.8,38,-99.99,,,-99.99,WSDL version 426,2013-03-14 14:48:00,
2013-03-14 09:53:00,52.1,27.0,29.50,South,173,7.5,12.8,37,-99.99,,,-99.99,WSDL version 426,2013-03-14 14:53:00,
2013-03-14 09:58:00,52.9,27.3,29.50,SE,129,5.7,12.1,37,-99.99,,,-99.99,WSDL version 426,2013-03-14 14:58:00,
2013-03-14 10:03:00,53.8,28.0,29.50,South,170,7.1,13.0,37,-99.99,,,-99.99,WSDL version 426,2013-03-14 15:03:00,
2013-03-14 10:08:00,54.6,28.3,29.50,South,178,8.1,13.0,36,-99.99,,,-99.99,WSDL version 426,2013-03-14 15:08:00,
2013-03-14 10:13:00,55.4,28.9,29.50,SSE,166,6.4,11.4,36,-99.99,,,-99.99,WSDL version 426,2013-03-14 15:13:00,
2013-03-14 10:18:00,56.2,29.5,29.50,South,175,7.5,10.7,36,-99.99,,,-99.99,WSDL version 426,2013-03-14 15:18:00,
2013-03-14 10:23:00,56.9,29.6,29.50,South,177,9.4,13.0,35,-99.99,,,-99.99,WSDL version 426,2013-03-14 15:23:00,
2013-03-14 10:28:00,57.8,30.0,29.50,South,185,8.3,15.4,34,-99.99,,,-99.99,WSDL version 426,2013-03-14 15:28:00,
2013-03-14 10:33:00,58.8,30.4,29.50,South,191,9.4,15.4,33,-99.99,,,-99.99,WSDL version 426,2013-03-14 15:33:00,
2013-03-14 10:38:00,59.6,30.3,29.50,SSE,158,8.5,14.5,32,-99.99,,,-99.99,WSDL version 426,2013-03-14 15:38:00,
2013-03-14 10:43:00,60.5,30.3,29.50,South,183,8.9,15.7,31,-99.99,,,-99.99,WSDL version 426,2013-03-14 15:43:00,
2013-03-14 10:48:00,61.4,29.9,29.50,South,180,9.7,17.4,30,-99.99,,,-99.99,WSDL version 426,2013-03-14 15:48:00,
2013-03-14 10:53:00,62.3,30.7,29.50,South,170,9.5,17.4,30,0.00,,,0.00,WSDL version 426,2013-03-14 15:53:00,
2013-03-14 10:58:00,63.1,30.1,29.50,SSW,196,11.2,17.4,28,0.00,,,0.00,WSDL version 426,2013-03-14 15:58:00,
2013-03-14 11:03:00,63.5,29.8,29.50,SSW,193,11.7,19.9,28,0.00,,,0.00,WSDL version 426,2013-03-14 16:03:00,
2013-03-14 11:08:00,63.8,30.1,29.50,South,188,9.0,19.9,28,0.00,,,0.00,WSDL version 426,2013-03-14 16:08:00,
2013-03-14 11:13:00,64.2,30.4,29.50,SSW,193,11.7,17.0,28,0.00,,,0.00,WSDL version 426,2013-03-14 16:13:00,
2013-03-14 11:19:00,64.5,29.8,29.50,SSW,203,11.9,17.2,27,0.00,,,0.00,WSDL version 426,2013-03-14 16:19:00,
2013-03-14 11:24:00,64.6,29.9,29.50,SSW,193,10.0,23.0,27,0.00,,,0.00,WSDL version 426,2013-03-14 16:24:00,
2013-03-14 11:29:00,64.8,30.1,29.50,SSE,166,9.0,23.0,27,0.00,,,0.00,WSDL version 426,2013-03-14 16:29:00,
2013-03-14 11:34:00,65.4,30.6,29.50,SSW,193,8.1,15.4,27,0.00,,,0.00,WSDL version 426,2013-03-14 16:34:00,
2013-03-14 11:39:00,65.6,30.8,29.50,South,183,12.5,17.4,27,0.00,,,0.00,WSDL version 426,2013-03-14 16:39:00,
2013-03-14 11:44:00,65.9,30.8,29.47,SSW,194,9.8,17.7,26,0.00,,,0.00,WSDL version 426,2013-03-14 16:44:00,
2013-03-14 11:49:00,66.6,30.7,29.47,SSW,213,9.3,17.7,26,0.00,,,0.00,WSDL version 426,2013-03-14 16:49:00,
2013-03-14 11:54:00,67.1,31.1,29.47,SSW,205,7.6,17.7,26,0.00,,,0.00,WSDL version 426,2013-03-14 16:54:00,
2013-03-14 11:59:00,67.4,31.0,29.47,SSW,198,9.6,17.4,25,0.00,,,0.00,WSDL version 426,2013-03-14 16:59:00,
2013-03-14 12:04:00,67.8,30.7,29.47,SSW,194,10.7,17.4,25,0.00,,,0.00,WSDL version 426,2013-03-14 17:04:00,
2013-03-14 12:09:00,68.1,31.0,29.47,SSW,203,9.9,16.3,25,0.00,,,0.00,WSDL version 426,2013-03-14 17:09:00,
2013-03-14 12:14:00,68.5,31.2,29.47,South,186,8.6,13.2,24,0.00,,,0.00,WSDL version 426,2013-03-14 17:14:00,
2013-03-14 12:19:00,69.3,31.1,29.47,SW,228,8.2,15.7,24,0.00,,,0.00,WSDL version 426,2013-03-14 17:19:00,
2013-03-14 12:24:00,69.3,31.2,29.47,South,188,8.3,15.7,24,0.00,,,0.00,WSDL version 426,2013-03-14 17:24:00,
2013-03-14 12:29:00,69.6,31.2,29.47,SSW,205,6.8,15.4,24,0.00,,,0.00,WSDL version 426,2013-03-14 17:29:00,
2013-03-14 12:34:00,69.8,31.4,29.47,South,188,7.6,12.3,24,0.00,,,0.00,WSDL version 426,2013-03-14 17:34:00,
2013-03-14 12:39:00,70.3,31.5,29.47,South,177,6.5,13.0,23,0.00,,,0.00,WSDL version 426,2013-03-14 17:39:00,
2013-03-14 12:44:00,70.7,31.1,29.47,SSW,208,7.4,13.0,23,0.00,,,0.00,WSDL version 426,2013-03-14 17:44:00,
2013-03-14 12:49:00,71.0,31.4,29.47,South,188,5.2,11.2,23,0.00,,,0.00,WSDL version 426,2013-03-14 17:49:00,
2013-03-14 12:54:00,71.7,31.9,29.47,South,180,6.3,9.6,23,0.00,,,0.00,WSDL version 426,2013-03-14 17:54:00,
2013-03-14 12:59:00,72.0,31.5,29.47,SSW,200,6.8,10.5,22,0.00,,,0.00,WSDL version 426,2013-03-14 17:59:00,
2013-03-14 13:04:00,72.2,31.7,29.47,South,177,8.8,11.0,22,0.00,,,0.00,WSDL version 426,2013-03-14 18:04:00,
2013-03-14 13:10:00,72.7,31.7,29.47,South,170,7.6,13.2,22,0.00,,,0.00,WSDL version 426,2013-03-14 18:10:00,
2013-03-14 13:15:00,73.1,32.0,29.47,South,183,8.9,13.2,22,0.00,,,0.00,WSDL version 426,2013-03-14 18:15:00,
2013-03-14 13:20:00,73.3,32.2,29.47,SSE,165,8.4,15.2,22,-99.99,,,-99.99,WSDL version 426,2013-03-14 18:20:00,
2013-03-14 13:25:00,73.7,32.5,29.47,SSE,149,6.9,15.2,22,-99.99,,,-99.99,WSDL version 426,2013-03-14 18:25:00,
2013-03-14 13:30:00,74.0,32.8,29.44,SSE,163,6.3,13.2,22,-99.99,,,-99.99,WSDL version 426,2013-03-14 18:30:00,
2013-03-14 13:35:00,74.4,32.9,29.44,SE,146,6.8,12.3,22,-99.99,,,-99.99,WSDL version 426,2013-03-14 18:35:00,
2013-03-14 13:41:00,74.9,33.1,29.44,SSE,150,8.8,13.2,21,-99.99,,,-99.99,WSDL version 426,2013-03-14 18:41:00,
2013-03-14 13:47:00,75.4,32.8,29.44,South,173,6.5,13.4,21,-99.99,,,-99.99,WSDL version 426,2013-03-14 18:47:00,
2013-03-14 13:53:00,75.8,33.1,29.44,SSE,158,7.1,13.4,21,-99.99,,,-99.99,WSDL version 426,2013-03-14 18:53:00,
2013-03-14 13:58:00,76.1,33.4,29.44,South,183,7.6,10.7,21,-99.99,,,-99.99,WSDL version 426,2013-03-14 18:58:00,
2013-03-14 14:03:00,76.4,33.6,29.44,SSE,163,9.3,12.3,21,-99.99,,,-99.99,WSDL version 426,2013-03-14 19:03:00,
2013-03-14 14:08:00,76.8,33.8,29.44,SE,132,6.5,13.2,20,-99.99,,,-99.99,WSDL version 426,2013-03-14 19:08:00,
2013-03-14 14:13:00,77.4,33.5,29.41,SSE,150,8.4,13.2,20,-99.99,,,-99.99,WSDL version 426,2013-03-14 19:13:00,
2013-03-14 14:18:00,77.9,33.6,29.41,SSE,149,7.1,13.2,20,-99.99,,,-99.99,WSDL version 426,2013-03-14 19:18:00,
2013-03-14 14:23:00,77.8,33.5,29.41,SSW,205,7.6,13.2,20,-99.99,,,-99.99,WSDL version 426,2013-03-14 19:23:00,
2013-03-14 14:28:00,77.8,33.5,29.41,South,191,7.4,12.8,20,-99.99,,,-99.99,WSDL version 426,2013-03-14 19:28:00,
2013-03-14 14:33:00,77.2,33.1,29.41,South,169,7.4,12.8,20,-99.99,,,-99.99,WSDL version 426,2013-03-14 19:33:00,
2013-03-14 14:38:00,76.9,33.4,29.41,South,186,7.1,12.3,21,-99.99,,,-99.99,WSDL version 426,2013-03-14 19:38:00,
2013-03-14 14:43:00,76.9,33.6,29.41,SSE,165,7.4,11.4,21,0.00,,,0.00,WSDL version 426,2013-03-14 19:43:00,
2013-03-14 14:49:00,76.2,32.8,29.41,South,169,5.9,11.0,21,-99.99,,,-99.99,WSDL version 426,2013-03-14 19:49:00,
2013-03-14 14:54:00,76.1,33.4,29.41,South,183,7.3,11.0,21,0.00,,,0.00,WSDL version 426,2013-03-14 19:54:00,
2013-03-14 14:59:00,76.9,33.3,29.41,SSW,212,8.1,13.0,21,-99.99,,,-99.99,WSDL version 426,2013-03-14 19:59:00,
2013-03-14 15:04:00,76.6,32.6,29.41,SW,218,7.7,13.0,20,-99.99,,,-99.99,WSDL version 426,2013-03-14 20:04:00,
2013-03-14 15:09:00,77.4,33.4,29.41,SSW,213,7.6,13.0,20,0.00,,,0.00,WSDL version 426,2013-03-14 20:09:00,
2013-03-14 15:14:00,78.3,34.0,29.38,South,178,6.1,13.0,20,0.00,,,0.00,WSDL version 426,2013-03-14 20:14:00,
2013-03-14 15:19:00,79.6,35.1,29.38,SSW,208,6.4,11.0,20,0.00,,,0.00,WSDL version 426,2013-03-14 20:19:00,
2013-03-14 15:24:00,79.0,31.9,29.38,SW,214,6.5,14.8,20,0.00,,,0.00,WSDL version 426,2013-03-14 20:24:00,
2013-03-14 15:29:00,79.6,35.0,29.38,South,188,5.6,14.8,20,-99.99,,,-99.99,WSDL version 426,2013-03-14 20:29:00,
2013-03-14 15:34:00,80.7,33.0,29.38,SW,225,5.5,11.0,17,-99.99,,,-99.99,WSDL version 426,2013-03-14 20:34:00,
2013-03-14 15:39:00,80.5,31.7,29.38,SSW,203,4.4,11.0,17,0.00,,,0.00,WSDL version 426,2013-03-14 20:39:00,
2013-03-14 15:44:00,80.2,31.5,29.38,SSW,210,7.5,10.7,17,0.00,,,0.00,WSDL version 426,2013-03-14 20:44:00,
2013-03-14 15:49:00,79.8,31.1,29.38,SSW,206,7.7,11.4,17,0.00,,,0.00,WSDL version 426,2013-03-14 20:49:00,
2013-03-14 15:54:00,79.9,30.8,29.38,SW,219,6.8,11.4,15,0.00,,,0.00,WSDL version 426,2013-03-14 20:54:00,
2013-03-14 15:59:00,79.7,30.5,29.38,SW,219,5.7,10.7,17,0.00,,,0.00,WSDL version 426,2013-03-14 20:59:00,
2013-03-14 16:04:00,79.7,29.8,29.38,SW,223,7.4,12.3,15,0.00,,,0.00,WSDL version 426,2013-03-14 21:04:00,
2013-03-14 16:09:00,79.6,28.9,29.38,South,180,6.4,12.3,17,0.00,,,0.00,WSDL version 426,2013-03-14 21:09:00,
2013-03-14 16:14:00,81.0,28.9,29.38,SW,220,6.6,9.6,14,0.00,,,0.00,WSDL version 426,2013-03-14 21:14:00,
2013-03-14 16:19:00,81.9,28.1,29.38,SW,222,6.6,10.7,14,0.00,,,0.00,WSDL version 426,2013-03-14 21:19:00,
2013-03-14 16:24:00,82.4,28.5,29.38,WSW,250,6.2,10.7,14,0.00,,,0.00,WSDL version 426,2013-03-14 21:24:00,
2013-03-14 16:29:00,83.0,28.9,29.38,SW,225,10.4,13.6,14,0.00,,,0.00,WSDL version 426,2013-03-14 21:29:00,
2013-03-14 16:34:00,83.3,26.3,29.38,SW,222,7.8,13.6,11,0.00,,,0.00,WSDL version 426,2013-03-14 21:34:00,
2013-03-14 16:39:00,83.5,23.5,29.38,SSW,195,6.4,12.3,11,0.00,,,0.00,WSDL version 426,2013-03-14 21:39:00,
2013-03-14 16:44:00,83.8,23.8,29.38,SSW,208,7.2,12.5,11,0.00,,,0.00,WSDL version 426,2013-03-14 21:44:00,
2013-03-14 16:49:00,83.7,23.6,29.38,WSW,238,7.9,15.4,11,0.00,,,0.00,WSDL version 426,2013-03-14 21:49:00,
2013-03-14 16:54:00,83.2,23.3,29.38,WSW,238,7.8,15.4,11,0.00,,,0.00,WSDL version 426,2013-03-14 21:54:00,
2013-03-14 16:59:00,83.4,23.4,29.38,WSW,248,8.3,13.0,11,0.00,,,0.00,WSDL version 426,2013-03-14 21:59:00,
2013-03-14 17:04:00,83.7,23.7,29.38,SSW,213,7.5,12.5,11,0.00,,,0.00,WSDL version 426,2013-03-14 22:04:00,
2013-03-14 17:09:00,84.1,24.0,29.38,SW,222,6.6,12.5,11,0.00,,,0.00,WSDL version 426,2013-03-14 22:09:00,
2013-03-14 17:14:00,84.3,24.1,29.38,SSW,210,6.1,12.5,11,0.00,,,0.00,WSDL version 426,2013-03-14 22:14:00,
2013-03-14 17:19:00,84.7,24.4,29.38,SSW,200,6.9,9.8,11,0.00,,,0.00,WSDL version 426,2013-03-14 22:19:00,
2013-03-14 17:24:00,84.3,24.1,29.38,SSW,193,8.4,14.5,11,-99.99,,,-99.99,WSDL version 426,2013-03-14 22:24:00,
2013-03-14 17:29:00,84.3,24.1,29.35,SSW,210,6.5,14.5,11,0.00,,,0.00,WSDL version 426,2013-03-14 22:29:00,
2013-03-14 17:34:00,84.6,24.4,29.35,SSW,208,5.4,12.5,11,0.00,,,0.00,WSDL version 426,2013-03-14 22:34:00,
2013-03-14 17:39:00,84.3,24.1,29.35,SW,215,5.8,17.2,11,-99.99,,,-99.99,WSDL version 426,2013-03-14 22:39:00,
2013-03-14 17:44:00,83.8,23.8,29.35,SSW,206,6.7,17.2,11,0.00,,,0.00,WSDL version 426,2013-03-14 22:44:00,
2013-03-14 17:49:00,83.0,23.1,29.35,South,190,5.4,13.2,11,0.00,,,0.00,WSDL version 426,2013-03-14 22:49:00,
2013-03-14 17:54:00,83.5,23.5,29.35,SW,217,5.5,13.2,11,0.00,,,0.00,WSDL version 426,2013-03-14 22:54:00,
2013-03-14 17:59:00,83.6,23.6,29.35,SSW,213,5.6,11.4,11,0.00,,,0.00,WSDL version 426,2013-03-14 22:59:00,
2013-03-14 18:04:00,84.0,23.9,29.35,SW,218,5.0,8.5,11,0.00,,,0.00,WSDL version 426,2013-03-14 23:04:00,
2013-03-14 18:09:00,84.3,24.1,29.35,South,186,6.2,10.1,11,0.00,,,0.00,WSDL version 426,2013-03-14 23:09:00,
2013-03-14 18:14:00,84.5,24.3,29.35,South,190,5.8,12.1,11,0.00,,,0.00,WSDL version 426,2013-03-14 23:14:00,
2013-03-14 18:19:00,84.4,24.2,29.35,South,180,7.6,13.4,11,0.00,,,0.00,WSDL version 426,2013-03-14 23:19:00,
2013-03-14 18:24:00,83.7,23.6,29.35,SSE,168,6.2,13.4,11,0.00,,,0.00,WSDL version 426,2013-03-14 23:24:00,
2013-03-14 18:29:00,83.5,23.5,29.35,South,174,5.3,10.7,11,-99.99,,,-99.99,WSDL version 426,2013-03-14 23:29:00,
2013-03-14 18:34:00,83.0,23.1,29.35,SSE,163,5.0,10.3,11,0.00,,,0.00,WSDL version 426,2013-03-14 23:34:00,
2013-03-14 18:39:00,82.7,22.9,29.35,SSE,163,4.7,10.3,11,0.00,,,0.00,WSDL version 426,2013-03-14 23:39:00,
2013-03-14 18:44:00,82.6,22.8,29.38,South,183,4.4,8.1,11,0.00,,,0.00,WSDL version 426,2013-03-14 23:44:00,
2013-03-14 18:49:00,82.3,23.6,29.38,SSW,198,3.9,8.1,12,0.00,,,0.00,WSDL version 426,2013-03-14 23:49:00,
2013-03-14 18:54:00,81.9,24.3,29.38,SSE,166,3.4,7.8,12,-99.99,,,-99.99,WSDL version 426,2013-03-14 23:54:00,
2013-03-14 18:59:00,81.4,24.7,29.35,South,175,3.4,6.3,14,-99.99,,,-99.99,WSDL version 426,2013-03-14 23:59:00,
2013-03-14 19:04:00,80.3,23.1,29.35,South,183,3.6,5.4,12,-99.99,,,-99.99,WSDL version 426,2013-03-15 00:04:00,
2013-03-14 19:09:00,78.9,27.4,29.35,South,173,3.3,5.8,15,-99.99,,,-99.99,WSDL version 426,2013-03-15 00:09:00,
2013-03-14 19:14:00,77.7,26.4,29.35,SSE,163,3.5,6.0,15,0.00,,,0.00,WSDL version 426,2013-03-15 00:14:00,
2013-03-14 19:20:00,76.1,25.1,29.35,South,173,4.3,7.8,15,-99.99,,,-99.99,WSDL version 426,2013-03-15 00:20:00,
2013-03-14 19:25:00,74.9,25.2,29.35,SSE,166,4.4,7.8,16,0.00,,,0.00,WSDL version 426,2013-03-15 00:25:00,
2013-03-14 19:30:00,73.9,27.8,29.35,South,180,4.2,6.5,18,0.00,,,0.00,WSDL version 426,2013-03-15 00:30:00,
2013-03-14 19:35:00,72.9,28.0,29.35,South,180,3.8,6.5,19,0.00,,,0.00,WSDL version 426,2013-03-15 00:35:00,
2013-03-14 19:40:00,72.1,30.0,29.35,SSW,194,3.6,7.2,21,0.00,,,0.00,WSDL version 426,2013-03-15 00:40:00,
2013-03-14 19:45:00,71.4,30.1,29.35,SSW,200,3.3,7.6,22,0.00,,,0.00,WSDL version 426,2013-03-15 00:45:00,
2013-03-14 19:50:00,70.6,30.0,29.35,SSW,194,2.7,7.6,22,0.00,,,0.00,WSDL version 426,2013-03-15 00:50:00,
2013-03-14 19:55:00,69.9,29.5,29.35,South,186,2.6,5.8,23,0.00,,,0.00,WSDL version 426,2013-03-15 00:55:00,
2013-03-14 20:00:00,69.3,29.9,29.35,South,174,2.7,4.3,23,0.00,,,0.00,WSDL version 426,2013-03-15 01:00:00,
2013-03-14 20:05:00,68.7,29.5,29.35,South,183,3.0,4.3,23,0.00,,,0.00,WSDL version 426,2013-03-15 01:05:00,
2013-03-14 20:10:00,68.2,29.0,29.35,South,180,2.3,4.3,23,0.00,,,0.00,WSDL version 426,2013-03-15 01:10:00,
2013-03-14 20:15:00,67.7,29.5,29.35,South,174,2.0,4.3,24,0.00,,,0.00,WSDL version 426,2013-03-15 01:15:00,
2013-03-14 20:20:00,67.2,29.2,29.35,South,178,1.9,4.0,24,0.00,,,0.00,WSDL version 426,2013-03-15 01:20:00,
2013-03-14 20:25:00,66.5,28.6,29.35,SSE,165,2.1,3.6,24,0.00,,,0.00,WSDL version 426,2013-03-15 01:25:00,
2013-03-14 20:30:00,65.9,28.9,29.35,SSE,168,1.8,3.4,25,0.00,,,0.00,WSDL version 426,2013-03-15 01:30:00,
2013-03-14 20:35:00,65.2,29.1,29.35,SSE,158,1.2,3.4,26,0.00,,,0.00,WSDL version 426,2013-03-15 01:35:00,
2013-03-14 20:40:00,64.3,29.4,29.35,SSE,160,2.7,3.6,27,0.00,,,0.00,WSDL version 426,2013-03-15 01:40:00,
2013-03-14 20:47:00,64.1,30.3,29.35,SSE,161,2.4,3.6,28,0.00,,,0.00,WSDL version 426,2013-03-15 01:47:00,
2013-03-14 20:52:00,64.0,30.6,29.35,SSE,168,2.0,3.6,29,0.00,,,0.00,WSDL version 426,2013-03-15 01:52:00,
2013-03-14 20:57:00,63.6,30.8,29.35,SSE,158,2.3,3.6,29,0.00,,,0.00,WSDL version 426,2013-03-15 01:57:00,
2013-03-14 21:02:00,63.2,30.6,29.35,SSE,160,2.0,3.6,30,0.00,,,0.00,WSDL version 426,2013-03-15 02:02:00,
2013-03-14 21:07:00,63.0,31.1,29.35,SSE,166,2.3,3.8,30,0.00,,,0.00,WSDL version 426,2013-03-15 02:07:00,
2013-03-14 21:12:00,62.8,31.6,29.35,SSE,160,1.7,3.8,31,0.00,,,0.00,WSDL version 426,2013-03-15 02:12:00,
2013-03-14 21:17:00,62.6,32.2,29.35,South,177,1.1,3.6,32,0.00,,,0.00,WSDL version 426,2013-03-15 02:17:00,
2013-03-14 21:22:00,62.1,32.1,29.35,South,188,1.0,3.6,33,0.00,,,0.00,WSDL version 426,2013-03-15 02:22:00,
2013-03-14 21:27:00,61.7,32.3,29.35,SSE,155,0.5,3.1,33,0.00,,,0.00,WSDL version 426,2013-03-15 02:27:00,
2013-03-14 21:32:00,61.2,32.3,29.35,SSE,160,0.0,3.1,34,0.00,,,0.00,WSDL version 426,2013-03-15 02:32:00,
2013-03-14 21:37:00,60.9,32.4,29.35,South,183,0.0,2.5,34,0.00,,,0.00,WSDL version 426,2013-03-15 02:37:00,
2013-03-14 21:42:00,60.5,32.0,29.38,SE,143,0.0,2.5,34,0.00,,,0.00,WSDL version 426,2013-03-15 02:42:00,
2013-03-14 21:47:00,59.9,32.1,29.38,SSE,158,0.0,0.0,35,0.00,,,0.00,WSDL version 426,2013-03-15 02:47:00,
2013-03-14 21:52:00,59.4,31.7,29.38,SE,135,1.1,2.9,35,0.00,,,0.00,WSDL version 426,2013-03-15 02:52:00,
2013-03-14 21:57:00,59.0,31.6,29.35,SE,143,1.1,3.1,36,0.00,,,0.00,WSDL version 426,2013-03-15 02:57:00,
2013-03-14 22:02:00,58.8,31.9,29.35,SE,128,2.2,3.8,36,0.00,,,0.00,WSDL version 426,2013-03-15 03:02:00,
2013-03-14 22:07:00,58.8,32.4,29.35,SE,135,2.3,3.8,37,0.00,,,0.00,WSDL version 426,2013-03-15 03:07:00,
2013-03-14 22:13:00,58.5,32.4,29.38,SE,141,1.6,3.1,37,0.00,,,0.00,WSDL version 426,2013-03-15 03:13:00,
2013-03-14 22:18:00,58.5,32.3,29.38,SE,138,1.9,3.1,37,0.00,,,0.00,WSDL version 426,2013-03-15 03:18:00,
2013-03-14 22:23:00,58.5,32.3,29.38,ESE,118,2.9,4.9,37,0.00,,,0.00,WSDL version 426,2013-03-15 03:23:00,
2013-03-14 22:28:00,58.6,32.4,29.38,SSE,149,1.9,4.9,37,0.00,,,0.00,WSDL version 426,2013-03-15 03:28:00,
2013-03-14 22:33:00,58.9,33.1,29.38,SSE,152,2.7,5.6,38,0.00,,,0.00,WSDL version 426,2013-03-15 03:33:00,
2013-03-14 22:38:00,59.3,33.7,29.38,SSE,158,3.3,5.8,38,0.00,,,0.00,WSDL version 426,2013-03-15 03:38:00,
2013-03-14 22:43:00,59.6,34.0,29.38,South,170,3.6,5.8,38,0.00,,,0.00,WSDL version 426,2013-03-15 03:43:00,
2013-03-14 22:48:00,59.7,33.4,29.38,SE,146,2.8,5.6,37,0.00,,,0.00,WSDL version 426,2013-03-15 03:48:00,
2013-03-14 22:53:00,59.7,33.6,29.38,SSE,158,1.7,4.9,37,0.00,,,0.00,WSDL version 426,2013-03-15 03:53:00,
2013-03-14 22:58:00,59.7,34.0,29.38,SSE,168,3.1,4.9,38,0.00,,,0.00,WSDL version 426,2013-03-15 03:58:00,
2013-03-14 23:00:00,59.6,34.0,29.38,SSE,160,3.1,4.9,38,0.00,,,0.00,WSDL version 426,2013-03-15 04:00:00,
2013-03-14 23:01:00,59.5,33.9,29.38,SSE,163,3.1,4.9,38,0.00,,,0.00,WSDL version 426,2013-03-15 04:01:00,
2013-03-14 23:02:00,59.5,33.9,29.38,South,169,3.2,4.9,38,0.00,,,0.00,WSDL version 426,2013-03-15 04:02:00,
2013-03-14 23:05:00,59.7,34.0,29.38,South,175,3.7,6.0,38,0.00,,,0.00,WSDL version 426,2013-03-15 04:05:00,
2013-03-14 23:10:00,60.1,35.2,29.38,SSE,160,3.6,6.0,40,0.00,,,0.00,WSDL version 426,2013-03-15 04:10:00,
2013-03-14 23:15:00,60.5,35.5,29.38,South,174,3.1,7.4,39,0.00,,,0.00,WSDL version 426,2013-03-15 04:15:00,
2013-03-14 23:20:00,60.7,35.6,29.38,South,169,3.5,7.4,39,0.00,,,0.00,WSDL version 426,2013-03-15 04:20:00,
2013-03-14 23:25:00,60.8,35.6,29.38,SSE,158,3.2,6.5,38,0.00,,,0.00,WSDL version 426,2013-03-15 04:25:00,
2013-03-14 23:30:00,60.7,35.5,29.38,SE,146,3.7,5.4,39,0.00,,,0.00,WSDL version 426,2013-03-15 04:30:00,
2013-03-14 23:35:00,60.5,35.5,29.38,SE,130,2.6,5.4,39,0.00,,,0.00,WSDL version 426,2013-03-15 04:35:00,
2013-03-14 23:40:00,60.1,35.1,29.38,SSE,152,2.8,5.4,39,0.00,,,0.00,WSDL version 426,2013-03-15 04:40:00,
2013-03-14 23:45:00,59.5,34.6,29.38,SSE,149,2.8,6.5,39,0.00,,,0.00,WSDL version 426,2013-03-15 04:45:00,
2013-03-14 23:50:00,59.2,34.6,29.38,SSE,149,3.9,6.5,40,0.00,,,0.00,WSDL version 426,2013-03-15 04:50:00,
2013-03-14 23:55:00,59.2,35.1,29.38,SSE,163,3.6,6.3,41,0.00,,,0.00,WSDL version 426,2013-03-15 04:55:00,